Find Starlink 32726

NORAD ID: 62446 Int'l Des: 2024-251 Owner: SPXS Country: US Constellation: starlink operational
LEOCIRCULAR

当前视图

正在加载3D地球...

About Starlink 32726

Starlink 32726 (NORAD 62446) is a starlink constellation satellite (v2 mini) launched Dec 29, 2024 by SPXS of US. It operates in LEO, CIRCULAR orbit with a mass of 730.00 kg.

即将过境

Passes for default location (London). Set your location on the main map for personalized predictions.

高度历史

Loading altitude history...

两行轨道根数

1 62446U 24251Q 26262.96248488 .00015726 00000-0 47571-3 0 9991
2 62446 53.1580 150.0056 0000566 60.6691 299.4369 15.34390856 97426
Epoch: Sep 19, 2026 • Age: 22 hours

当前状态

高度 465.7 km
远地点 / 近地点 N/A
速度 7.64 km/s
星下点 38.31°N, 33.41°W
发射日期 Dec 29, 2024
运行时间 1.7 years
类型 internet

技术详情

分类 Payload
质量 730.00 kg
干质量 700.00 kg
长度 0.30 m
跨度 29.00 m
形状 ? Box + pan
制造商 SPXS
平台类型 Starlink V2M
阶段状态 In Orbit
所有者/国家 SPXS/US

Most Searched